Location: Burla
(50.9568°N, 10.4983°E)
Time: 22:28:43
(UTC+00:00)

NOAA 12 - Visible Passes

Search period start: 18 April 2026 00:00
Search period end: 28 April 2026 00:00
Orbit: 793 x 812 km, 98.6° (Epoch: 18 April)

Date Brightness Start Highest point End Pass type
(mag) Time Alt. Az. Time Alt. Az. Time Alt. Az.
18 Apr 7.0 02:53:22 10° ENE 02:55:41 13° E 02:57:58 10° ESE visible
21 Apr 6.8 03:14:27 10° NE 03:18:12 19° E 03:21:55 10° SE visible
22 Apr 7.1 02:50:03 10° ENE 02:51:56 12° E 02:53:50 10° ESE visible
25 Apr 6.8 03:10:55 10° NE 03:14:28 18° E 03:18:01 10° SE visible
26 Apr 7.2 02:46:53 10° ENE 02:48:12 11° E 02:49:32 10° E visible
